User: anonymous   Login
Location: Drignac
(45.1667°N, 2.0333°E)
Time: 12:20:27
(UTC+00:00)
Language:

Cosmos 1745 Rocket - Orbit

View from above orbital plane
View from above orbital plane
View from above satellite
View from above satellite

Ground track
Ground track

The orbit data is extracted from the following two-line orbital elements,

1 16728U 86037B   20190.90242921 +.00000050 +00000-0 +35450-4 0  9995
2 16728 082.9541 228.6954 0029827 318.9909 214.5328 13.76733483714101
Epoch (UTC): 08 July 2020 21:39:29
Eccentricity: 0.0029827
inclination: 82.9541°
perigee height: 953 km
apogee height: 997 km
right ascension of ascending node: 228.6954°
argument of perigee: 318.9909°
revolutions per day: 13.76733483
mean anomaly at epoch: 214.5328°
orbit number at epoch: 71410

The dashed part of the orbit path shows where the satellite is in the earth's shadow,  

DLR